Time,TemperatureF,DewpointF,PressureIn,WindDirection,WindDirectionDegrees,WindSpeedMPH,WindSpeedGustMPH,Humidity,HourlyPrecipIn,Conditions,Clouds,dailyrainin,SoftwareType,DateUTC
2013-02-04 00:03:00,12.4,9.0,30.12,East,97,3.0,5.0,86,0.00,,,0.00,meteohub,2013-02-04 06:03:00,
2013-02-04 00:08:00,12.4,9.0,30.12,East,98,4.0,5.0,86,0.00,,,0.00,meteohub,2013-02-04 06:08:00,
2013-02-04 00:13:00,12.4,9.0,30.12,East,98,0.0,5.0,86,0.00,,,0.00,meteohub,2013-02-04 06:13:00,
2013-02-04 00:18:00,12.4,9.0,30.12,East,99,1.0,5.0,86,0.00,,,0.00,meteohub,2013-02-04 06:18:00,
2013-02-04 00:23:00,12.4,9.0,30.12,East,99,0.0,5.0,86,0.00,,,0.00,meteohub,2013-02-04 06:23:00,
2013-02-04 00:28:00,12.4,9.0,30.12,East,99,0.0,5.0,86,0.00,,,0.00,meteohub,2013-02-04 06:28:00,
2013-02-04 00:33:00,12.4,9.0,30.12,East,99,1.0,5.0,86,0.00,,,0.00,meteohub,2013-02-04 06:33:00,
2013-02-04 00:38:00,12.4,9.0,30.12,East,99,0.0,3.0,86,0.00,,,0.00,meteohub,2013-02-04 06:38:00,
2013-02-04 00:43:00,12.4,9.0,30.12,East,99,0.0,3.0,86,0.00,,,0.00,meteohub,2013-02-04 06:43:00,
2013-02-04 00:48:00,12.4,9.0,30.12,East,99,3.0,5.0,86,0.00,,,0.00,meteohub,2013-02-04 06:48:00,
2013-02-04 00:53:00,12.4,9.0,30.12,East,99,0.0,5.0,86,0.00,,,0.00,meteohub,2013-02-04 06:53:00,
2013-02-04 00:58:00,12.2,8.8,30.12,East,99,3.0,6.0,86,0.00,,,0.00,meteohub,2013-02-04 06:58:00,
2013-02-04 01:03:00,12.0,8.6,30.12,East,99,3.0,6.0,86,0.00,,,0.00,meteohub,2013-02-04 07:03:00,
2013-02-04 01:08:00,12.0,8.6,30.12,East,98,6.0,6.0,86,0.00,,,0.00,meteohub,2013-02-04 07:08:00,
2013-02-04 01:13:00,12.0,8.6,30.12,East,98,0.0,9.0,86,0.00,,,0.00,meteohub,2013-02-04 07:13:00,
2013-02-04 01:18:00,12.0,8.4,30.12,East,98,0.0,9.0,85,0.00,,,0.00,meteohub,2013-02-04 07:18:00,
2013-02-04 01:23:00,12.0,8.4,30.12,East,101,5.0,9.0,85,0.00,,,0.00,meteohub,2013-02-04 07:23:00,
2013-02-04 01:28:00,11.8,8.2,30.11,ESE,106,0.0,6.0,85,0.00,,,0.00,meteohub,2013-02-04 07:28:00,
2013-02-04 01:33:00,11.8,8.2,30.12,ESE,106,0.0,6.0,85,0.00,,,0.00,meteohub,2013-02-04 07:33:00,
2013-02-04 01:38:00,11.8,8.2,30.12,ESE,106,2.0,6.0,85,0.00,,,0.00,meteohub,2013-02-04 07:38:00,
2013-02-04 01:43:00,11.7,8.1,30.12,ESE,106,0.0,5.0,85,0.00,,,0.00,meteohub,2013-02-04 07:43:00,
2013-02-04 01:48:00,11.7,8.1,30.12,ESE,106,0.0,4.0,85,0.00,,,0.00,meteohub,2013-02-04 07:48:00,
2013-02-04 01:53:00,11.5,7.9,30.12,ESE,103,3.0,4.0,85,0.00,,,0.00,meteohub,2013-02-04 07:53:00,
2013-02-04 01:58:00,11.5,7.9,30.13,ESE,102,3.0,7.0,85,0.00,,,0.00,meteohub,2013-02-04 07:58:00,
2013-02-04 02:03:00,11.5,7.9,30.13,East,95,1.0,7.0,85,0.00,,,0.00,meteohub,2013-02-04 08:03:00,
2013-02-04 02:08:00,11.3,7.3,30.13,East,96,2.0,7.0,84,0.00,,,0.00,meteohub,2013-02-04 08:08:00,
2013-02-04 02:13:00,11.3,7.3,30.13,SE,125,0.0,7.0,84,0.00,,,0.00,meteohub,2013-02-04 08:13:00,
2013-02-04 02:18:00,11.5,7.5,30.13,East,92,0.0,6.0,84,0.00,,,0.00,meteohub,2013-02-04 08:18:00,
2013-02-04 02:23:00,11.3,7.3,30.14,ESE,109,0.0,7.0,84,0.00,,,0.00,meteohub,2013-02-04 08:23:00,
2013-02-04 02:28:00,11.3,7.3,30.13,ESE,109,3.0,7.0,84,0.00,,,0.00,meteohub,2013-02-04 08:28:00,
2013-02-04 02:33:00,11.3,7.3,30.14,ESE,109,0.0,6.0,84,0.00,,,0.00,meteohub,2013-02-04 08:33:00,
2013-02-04 02:38:00,11.1,7.2,30.14,ESE,108,1.0,6.0,84,0.00,,,0.00,meteohub,2013-02-04 08:38:00,
2013-02-04 02:43:00,11.1,7.2,30.14,ESE,107,0.0,6.0,84,0.00,,,0.00,meteohub,2013-02-04 08:43:00,
2013-02-04 02:48:00,10.9,7.0,30.14,ESE,106,1.0,6.0,84,0.00,,,0.00,meteohub,2013-02-04 08:48:00,
2013-02-04 02:53:00,10.8,6.8,30.14,ESE,106,1.0,6.0,84,0.00,,,0.00,meteohub,2013-02-04 08:53:00,
2013-02-04 02:58:00,10.6,6.4,30.14,ESE,106,0.0,6.0,83,0.00,,,0.00,meteohub,2013-02-04 08:58:00,
2013-02-04 03:03:00,10.2,6.1,30.14,ESE,104,3.0,6.0,83,0.00,,,0.00,meteohub,2013-02-04 09:03:00,
2013-02-04 03:08:00,10.0,5.9,30.14,ESE,105,0.0,7.0,83,0.00,,,0.00,meteohub,2013-02-04 09:08:00,
2013-02-04 03:13:00,10.0,5.9,30.13,ESE,105,0.0,7.0,83,0.00,,,0.00,meteohub,2013-02-04 09:13:00,
2013-02-04 03:18:00,9.9,5.7,30.13,ESE,105,0.0,7.0,83,0.00,,,0.00,meteohub,2013-02-04 09:18:00,
2013-02-04 03:23:00,9.7,5.5,30.14,ESE,105,0.0,5.0,83,0.00,,,0.00,meteohub,2013-02-04 09:23:00,
2013-02-04 03:28:00,9.3,5.2,30.14,ESE,105,0.0,4.0,83,0.00,,,0.00,meteohub,2013-02-04 09:28:00,
2013-02-04 03:33:00,9.0,4.8,30.14,ESE,105,4.0,4.0,83,0.00,,,0.00,meteohub,2013-02-04 09:33:00,
2013-02-04 03:38:00,8.8,4.6,30.14,ESE,103,1.0,5.0,83,0.00,,,0.00,meteohub,2013-02-04 09:38:00,
2013-02-04 03:43:00,8.4,4.3,30.14,ESE,103,3.0,5.0,83,0.00,,,0.00,meteohub,2013-02-04 09:43:00,
2013-02-04 03:48:00,8.2,4.1,30.14,ESE,104,0.0,5.0,83,0.00,,,0.00,meteohub,2013-02-04 09:48:00,
2013-02-04 03:53:00,8.2,4.1,30.14,ESE,104,0.0,4.0,83,0.00,,,0.00,meteohub,2013-02-04 09:53:00,
2013-02-04 03:58:00,8.1,3.9,30.14,ESE,103,2.0,4.0,83,0.00,,,0.00,meteohub,2013-02-04 09:58:00,
2013-02-04 04:03:00,7.9,3.7,30.15,ESE,104,4.0,4.0,83,0.00,,,0.00,meteohub,2013-02-04 10:03:00,
2013-02-04 04:08:00,7.9,3.7,30.15,ESE,103,1.0,5.0,83,0.00,,,0.00,meteohub,2013-02-04 10:08:00,
2013-02-04 04:13:00,7.7,3.6,30.15,ESE,103,0.0,5.0,83,0.00,,,0.00,meteohub,2013-02-04 10:13:00,
2013-02-04 04:18:00,7.5,3.7,30.15,ESE,104,1.0,5.0,84,0.00,,,0.00,meteohub,2013-02-04 10:18:00,
2013-02-04 04:23:00,7.3,3.2,30.15,ESE,104,0.0,4.0,83,0.00,,,0.00,meteohub,2013-02-04 10:23:00,
2013-02-04 04:28:00,7.2,3.0,30.15,ESE,104,0.0,4.0,83,0.00,,,0.00,meteohub,2013-02-04 10:28:00,
2013-02-04 04:33:00,7.0,3.2,30.15,ESE,104,0.0,4.0,84,0.00,,,0.00,meteohub,2013-02-04 10:33:00,
2013-02-04 04:38:00,6.6,2.8,30.15,ESE,104,0.0,4.0,84,0.00,,,0.00,meteohub,2013-02-04 10:38:00,
2013-02-04 04:43:00,6.6,2.8,30.15,ESE,103,0.0,3.0,84,0.00,,,0.00,meteohub,2013-02-04 10:43:00,
2013-02-04 04:48:00,6.4,2.7,30.15,ESE,104,0.0,3.0,84,0.00,,,0.00,meteohub,2013-02-04 10:48:00,
2013-02-04 04:53:00,6.3,2.5,30.16,ESE,104,0.0,3.0,84,0.00,,,0.00,meteohub,2013-02-04 10:53:00,
2013-02-04 04:58:00,6.1,2.3,30.16,ESE,103,0.0,1.0,84,0.00,,,0.00,meteohub,2013-02-04 10:58:00,
2013-02-04 05:03:00,6.1,2.3,30.15,ESE,104,0.0,3.0,84,0.00,,,0.00,meteohub,2013-02-04 11:03:00,
2013-02-04 05:08:00,5.9,2.1,30.16,ESE,104,0.0,3.0,84,0.00,,,0.00,meteohub,2013-02-04 11:08:00,
2013-02-04 05:13:00,5.7,1.9,30.16,ESE,104,0.0,3.0,84,0.00,,,0.00,meteohub,2013-02-04 11:13:00,
2013-02-04 05:18:00,5.4,1.6,30.16,ESE,104,0.0,3.0,84,0.00,,,0.00,meteohub,2013-02-04 11:18:00,
2013-02-04 05:23:00,5.2,1.4,30.16,ESE,103,0.0,0.0,84,0.00,,,0.00,meteohub,2013-02-04 11:23:00,
2013-02-04 05:28:00,5.0,1.2,30.17,ESE,104,0.0,0.0,84,0.00,,,0.00,meteohub,2013-02-04 11:28:00,
2013-02-04 05:33:00,4.8,1.0,30.17,ESE,104,0.0,0.0,84,0.00,,,0.00,meteohub,2013-02-04 11:33:00,
2013-02-04 05:38:00,4.6,0.9,30.17,ESE,104,0.0,0.0,84,0.00,,,0.00,meteohub,2013-02-04 11:38:00,
2013-02-04 05:43:00,4.3,0.5,30.17,ESE,104,0.0,0.0,84,0.00,,,0.00,meteohub,2013-02-04 11:43:00,
2013-02-04 05:48:00,3.9,0.1,30.17,ESE,103,0.0,0.0,84,0.00,,,0.00,meteohub,2013-02-04 11:48:00,
2013-02-04 05:53:00,3.9,0.1,30.17,ESE,104,0.0,0.0,84,0.00,,,0.00,meteohub,2013-02-04 11:53:00,
2013-02-04 05:58:00,4.1,0.7,30.17,ESE,104,0.0,0.0,85,0.00,,,0.00,meteohub,2013-02-04 11:58:00,
2013-02-04 06:03:00,4.5,1.0,30.17,ESE,104,0.0,0.0,85,0.00,,,0.00,meteohub,2013-02-04 12:03:00,
2013-02-04 06:08:00,4.6,1.2,30.17,ESE,103,0.0,0.0,85,0.00,,,0.00,meteohub,2013-02-04 12:08:00,
2013-02-04 06:13:00,4.6,1.2,30.17,ESE,104,0.0,0.0,85,0.00,,,0.00,meteohub,2013-02-04 12:13:00,
2013-02-04 06:18:00,4.5,0.7,30.18,ESE,103,0.0,0.0,84,0.00,,,0.00,meteohub,2013-02-04 12:18:00,
2013-02-04 06:24:00,4.3,0.5,30.18,ESE,104,0.0,0.0,84,0.00,,,0.00,meteohub,2013-02-04 12:24:00,
2013-02-04 06:29:00,4.5,1.0,30.18,ESE,104,0.0,0.0,85,0.00,,,0.00,meteohub,2013-02-04 12:29:00,
2013-02-04 06:33:00,4.8,1.2,30.18,ESE,104,0.0,1.0,85,0.00,,,0.00,meteohub,2013-02-04 12:33:00,
2013-02-04 06:39:00,5.2,1.4,30.18,ESE,103,1.0,1.0,84,0.00,,,0.00,meteohub,2013-02-04 12:39:00,
2013-02-04 06:44:00,5.2,1.4,30.18,ESE,104,0.0,2.0,84,0.00,,,0.00,meteohub,2013-02-04 12:44:00,
2013-02-04 06:49:00,5.0,1.2,30.19,ESE,103,0.0,2.0,84,0.00,,,0.00,meteohub,2013-02-04 12:49:00,
2013-02-04 06:54:00,4.6,0.7,30.19,ESE,104,0.0,2.0,83,0.00,,,0.00,meteohub,2013-02-04 12:54:00,
2013-02-04 06:59:00,4.5,0.5,30.19,ESE,103,0.0,2.0,83,0.00,,,0.00,meteohub,2013-02-04 12:59:00,
2013-02-04 07:04:00,4.5,0.5,30.19,ESE,104,0.0,0.0,83,0.00,,,0.00,meteohub,2013-02-04 13:04:00,
2013-02-04 07:09:00,4.3,0.3,30.19,ESE,103,0.0,0.0,83,0.00,,,0.00,meteohub,2013-02-04 13:09:00,
2013-02-04 07:14:00,4.1,0.1,30.19,ESE,103,0.0,0.0,83,0.00,,,0.00,meteohub,2013-02-04 13:14:00,
2013-02-04 07:19:00,3.9,0.0,30.19,ESE,104,0.0,0.0,83,0.00,,,0.00,meteohub,2013-02-04 13:19:00,
2013-02-04 07:24:00,3.9,0.0,30.19,ESE,104,0.0,0.0,83,0.00,,,0.00,meteohub,2013-02-04 13:24:00,
2013-02-04 07:29:00,3.7,-0.2,30.19,ESE,104,0.0,0.0,83,0.00,,,0.00,meteohub,2013-02-04 13:29:00,
2013-02-04 07:34:00,3.6,-0.8,30.19,ESE,104,0.0,0.0,82,0.00,,,0.00,meteohub,2013-02-04 13:34:00,
2013-02-04 07:39:00,3.2,-1.1,30.19,ESE,104,0.0,0.0,82,0.00,,,0.00,meteohub,2013-02-04 13:39:00,
2013-02-04 07:44:00,2.8,-1.5,30.19,ESE,104,0.0,0.0,82,0.00,,,0.00,meteohub,2013-02-04 13:44:00,
2013-02-04 07:49:00,2.5,-1.8,30.19,ESE,104,0.0,0.0,82,0.00,,,0.00,meteohub,2013-02-04 13:49:00,
2013-02-04 07:54:00,2.5,-1.5,30.19,ESE,103,0.0,0.0,83,0.00,,,0.00,meteohub,2013-02-04 13:54:00,
2013-02-04 07:59:00,2.5,-1.5,30.20,ESE,103,0.0,0.0,83,0.00,,,0.00,meteohub,2013-02-04 13:59:00,
2013-02-04 08:04:00,2.5,-1.5,30.20,ESE,104,0.0,0.0,83,0.00,,,0.00,meteohub,2013-02-04 14:04:00,
2013-02-04 08:09:00,2.5,-1.5,30.20,ESE,104,0.0,0.0,83,0.00,,,0.00,meteohub,2013-02-04 14:09:00,
2013-02-04 08:14:00,2.7,-1.3,30.20,ESE,103,0.0,0.0,83,0.00,,,0.00,meteohub,2013-02-04 14:14:00,
2013-02-04 08:19:00,3.0,-0.9,30.20,ESE,103,0.0,0.0,83,0.00,,,0.00,meteohub,2013-02-04 14:19:00,
2013-02-04 08:24:00,3.6,-0.4,30.20,ESE,104,0.0,0.0,83,0.00,,,0.00,meteohub,2013-02-04 14:24:00,
2013-02-04 08:29:00,3.7,-0.6,30.20,ESE,104,0.0,0.0,82,0.00,,,0.00,meteohub,2013-02-04 14:29:00,
2013-02-04 08:34:00,3.9,-0.4,30.20,ESE,103,0.0,0.0,82,0.00,,,0.00,meteohub,2013-02-04 14:34:00,
2013-02-04 08:39:00,3.9,-0.4,30.20,ESE,104,0.0,0.0,82,0.00,,,0.00,meteohub,2013-02-04 14:39:00,
2013-02-04 08:44:00,4.3,-0.2,30.20,ESE,103,3.0,0.0,81,0.00,,,0.00,meteohub,2013-02-04 14:44:00,
2013-02-04 08:49:00,4.6,0.1,30.20,ESE,103,2.0,3.0,81,0.00,,,0.00,meteohub,2013-02-04 14:49:00,
2013-02-04 08:54:00,4.8,0.0,30.20,ESE,104,2.0,3.0,80,0.00,,,0.00,meteohub,2013-02-04 14:54:00,
2013-02-04 08:59:00,5.0,0.1,30.20,ESE,104,4.0,4.0,80,0.00,,,0.00,meteohub,2013-02-04 14:59:00,
2013-02-04 09:04:00,5.2,0.1,30.21,ESE,103,2.0,4.0,79,0.00,,,0.00,meteohub,2013-02-04 15:04:00,
2013-02-04 09:09:00,5.4,0.0,30.21,ESE,103,2.0,4.0,78,0.00,,,0.00,meteohub,2013-02-04 15:09:00,
2013-02-04 09:14:00,5.7,0.3,30.21,ESE,102,2.0,4.0,78,0.00,,,0.00,meteohub,2013-02-04 15:14:00,
2013-02-04 09:19:00,6.1,0.5,30.21,East,101,4.0,5.0,77,0.00,,,0.00,meteohub,2013-02-04 15:19:00,
2013-02-04 09:24:00,6.3,0.3,30.22,East,99,3.0,5.0,76,0.00,,,0.00,meteohub,2013-02-04 15:24:00,
2013-02-04 09:29:00,6.6,0.7,30.22,East,100,3.0,5.0,76,0.00,,,0.00,meteohub,2013-02-04 15:29:00,
2013-02-04 09:34:00,6.8,0.5,30.22,East,96,2.0,6.0,75,0.00,,,0.00,meteohub,2013-02-04 15:34:00,
2013-02-04 09:39:00,7.2,0.7,30.22,East,96,0.0,6.0,74,0.00,,,0.00,meteohub,2013-02-04 15:39:00,
2013-02-04 09:44:00,7.3,0.9,30.22,East,97,1.0,6.0,74,0.00,,,0.00,meteohub,2013-02-04 15:44:00,
2013-02-04 09:49:00,7.5,0.3,30.22,East,97,2.0,5.0,72,0.00,,,0.00,meteohub,2013-02-04 15:49:00,
2013-02-04 09:54:00,7.7,0.5,30.22,East,96,0.0,4.0,72,0.00,,,0.00,meteohub,2013-02-04 15:54:00,
2013-02-04 09:59:00,7.9,0.5,30.22,East,97,0.0,4.0,71,0.00,,,0.00,meteohub,2013-02-04 15:59:00,
2013-02-04 10:04:00,8.2,0.9,30.23,East,97,4.0,4.0,71,0.00,,,0.00,meteohub,2013-02-04 16:04:00,
2013-02-04 10:09:00,8.2,0.5,30.23,East,91,2.0,5.0,70,0.00,,,0.00,meteohub,2013-02-04 16:09:00,
2013-02-04 10:14:00,8.2,0.5,30.23,East,91,1.0,5.0,70,0.00,,,0.00,meteohub,2013-02-04 16:14:00,
2013-02-04 10:19:00,8.4,0.7,30.23,East,91,3.0,5.0,70,0.00,,,0.00,meteohub,2013-02-04 16:19:00,
2013-02-04 10:24:00,8.8,1.0,30.23,East,91,0.0,6.0,70,0.00,,,0.00,meteohub,2013-02-04 16:24:00,
2013-02-04 10:29:00,9.1,1.4,30.23,East,91,0.0,6.0,70,0.00,,,0.00,meteohub,2013-02-04 16:29:00,
2013-02-04 10:34:00,9.7,1.6,30.23,East,91,2.0,6.0,69,0.00,,,0.00,meteohub,2013-02-04 16:34:00,
2013-02-04 10:39:00,9.5,1.0,30.23,East,91,0.0,5.0,68,0.00,,,0.00,meteohub,2013-02-04 16:39:00,
2013-02-04 10:44:00,9.7,1.2,30.23,East,91,0.0,4.0,68,0.00,,,0.00,meteohub,2013-02-04 16:44:00,
2013-02-04 10:49:00,9.9,1.4,30.23,East,91,0.0,4.0,68,0.00,,,0.00,meteohub,2013-02-04 16:49:00,
2013-02-04 10:54:00,9.9,1.0,30.23,East,90,0.0,4.0,67,0.00,,,0.00,meteohub,2013-02-04 16:54:00,
2013-02-04 10:59:00,10.0,1.2,30.22,East,90,0.0,4.0,67,0.00,,,0.00,meteohub,2013-02-04 16:59:00,
2013-02-04 11:04:00,10.2,1.4,30.22,East,90,0.0,4.0,67,0.00,,,0.00,meteohub,2013-02-04 17:04:00,
2013-02-04 11:09:00,11.1,2.7,30.22,East,90,0.0,4.0,68,0.00,,,0.00,meteohub,2013-02-04 17:09:00,
2013-02-04 11:14:00,12.4,3.2,30.21,East,90,0.0,4.0,66,0.00,,,0.00,meteohub,2013-02-04 17:14:00,
2013-02-04 11:19:00,13.3,4.1,30.21,East,90,0.0,3.0,66,0.00,,,0.00,meteohub,2013-02-04 17:19:00,
2013-02-04 11:24:00,14.5,5.2,30.20,East,90,0.0,0.0,66,0.00,,,0.00,meteohub,2013-02-04 17:24:00,
2013-02-04 11:29:00,14.7,4.1,30.20,East,90,0.0,0.0,62,0.00,,,0.00,meteohub,2013-02-04 17:29:00,
2013-02-04 11:34:00,15.3,5.4,30.20,East,90,0.0,0.0,64,0.00,,,0.00,meteohub,2013-02-04 17:34:00,
2013-02-04 11:39:00,16.9,6.1,30.19,East,90,0.0,0.0,62,0.00,,,0.00,meteohub,2013-02-04 17:39:00,
2013-02-04 11:44:00,17.4,5.9,30.19,East,90,0.0,1.0,60,0.00,,,0.00,meteohub,2013-02-04 17:44:00,
2013-02-04 11:49:00,19.0,7.9,30.18,East,90,0.0,1.0,61,0.00,,,0.00,meteohub,2013-02-04 17:49:00,
2013-02-04 11:54:00,20.5,7.7,30.18,East,90,0.0,0.0,57,0.00,,,0.00,meteohub,2013-02-04 17:54:00,
2013-02-04 11:59:00,19.8,4.6,30.19,East,90,0.0,0.0,51,0.01,,,0.01,meteohub,2013-02-04 17:59:00,
2013-02-04 12:04:00,17.8,4.3,30.19,East,90,0.0,0.0,55,0.01,,,0.01,meteohub,2013-02-04 18:04:00,
2013-02-04 12:09:00,17.8,4.3,30.19,East,90,0.0,0.0,55,0.02,,,0.02,meteohub,2013-02-04 18:09:00,
2013-02-04 12:15:00,18.7,6.8,30.19,ENE,68,0.0,1.0,59,0.02,,,0.02,meteohub,2013-02-04 18:15:00,
2013-02-04 12:20:00,19.8,7.3,30.19,NNW,328,4.0,4.0,58,0.02,,,0.02,meteohub,2013-02-04 18:20:00,
2013-02-04 12:25:00,19.2,5.7,30.19,NNW,329,4.0,6.0,55,0.03,,,0.03,meteohub,2013-02-04 18:25:00,
2013-02-04 12:30:00,19.0,5.9,30.19,NNW,329,0.0,6.0,56,0.03,,,0.03,meteohub,2013-02-04 18:30:00,
2013-02-04 12:35:00,19.2,6.1,30.19,NNW,329,2.0,6.0,56,0.03,,,0.03,meteohub,2013-02-04 18:35:00,
2013-02-04 12:40:00,19.0,5.5,30.18,NNW,329,1.0,6.0,55,0.03,,,0.03,meteohub,2013-02-04 18:40:00,
2013-02-04 12:45:00,18.1,4.3,30.18,NNW,329,0.0,6.0,54,0.03,,,0.03,meteohub,2013-02-04 18:45:00,
2013-02-04 12:50:00,18.1,5.0,30.18,NNW,329,3.0,6.0,56,0.03,,,0.03,meteohub,2013-02-04 18:50:00,
2013-02-04 12:55:00,18.7,5.5,30.18,NNW,329,0.0,5.0,56,0.03,,,0.03,meteohub,2013-02-04 18:55:00,
2013-02-04 13:00:00,19.2,6.1,30.18,NNW,329,3.0,5.0,56,0.03,,,0.04,meteohub,2013-02-04 19:00:00,
2013-02-04 13:05:00,19.4,5.0,30.18,NNW,329,0.0,5.0,53,0.03,,,0.04,meteohub,2013-02-04 19:05:00,
2013-02-04 13:10:00,19.0,4.6,30.18,NNW,327,2.0,5.0,53,0.02,,,0.04,meteohub,2013-02-04 19:10:00,
2013-02-04 13:15:00,18.7,4.8,30.18,NW,326,3.0,7.0,54,0.02,,,0.04,meteohub,2013-02-04 19:15:00,
2013-02-04 13:20:00,18.3,4.5,30.18,NNW,327,0.0,7.0,54,0.01,,,0.04,meteohub,2013-02-04 19:20:00,
2013-02-04 13:25:00,18.1,3.9,30.18,NW,326,5.0,7.0,53,0.01,,,0.04,meteohub,2013-02-04 19:25:00,
2013-02-04 13:30:00,18.1,4.3,30.18,NW,326,1.0,6.0,54,0.01,,,0.04,meteohub,2013-02-04 19:30:00,
2013-02-04 13:35:00,18.1,3.9,30.18,NW,326,3.0,6.0,53,0.01,,,0.04,meteohub,2013-02-04 19:35:00,
2013-02-04 13:40:00,18.0,3.7,30.17,NNW,330,3.0,6.0,53,0.01,,,0.04,meteohub,2013-02-04 19:40:00,
2013-02-04 13:45:00,17.8,3.2,30.17,NNW,330,4.0,6.0,52,0.01,,,0.04,meteohub,2013-02-04 19:45:00,
2013-02-04 13:50:00,17.4,2.8,30.17,NNW,331,2.0,6.0,52,0.00,,,0.04,meteohub,2013-02-04 19:50:00,
2013-02-04 13:55:00,17.2,3.0,30.17,NNW,328,4.0,7.0,53,0.00,,,0.04,meteohub,2013-02-04 19:55:00,
2013-02-04 14:00:00,17.1,2.5,30.17,NW,322,5.0,7.0,52,0.00,,,0.04,meteohub,2013-02-04 20:00:00,
2013-02-04 14:05:00,16.9,2.3,30.16,NW,321,2.0,10.0,52,0.00,,,0.04,meteohub,2013-02-04 20:05:00,
2013-02-04 14:10:00,16.9,2.7,30.16,NW,326,3.0,10.0,53,0.00,,,0.04,meteohub,2013-02-04 20:10:00,
2013-02-04 14:15:00,16.3,2.1,30.15,NNW,336,2.0,8.0,53,0.00,,,0.04,meteohub,2013-02-04 20:15:00,
2013-02-04 14:20:00,16.5,3.2,30.15,NNW,335,0.0,6.0,55,0.00,,,0.04,meteohub,2013-02-04 20:20:00,
2013-02-04 14:25:00,16.5,2.8,30.15,NW,313,4.0,7.0,54,0.00,,,0.04,meteohub,2013-02-04 20:25:00,
2013-02-04 14:30:00,16.3,2.1,30.15,WNW,294,4.0,9.0,53,0.00,,,0.04,meteohub,2013-02-04 20:30:00,
2013-02-04 14:35:00,16.0,1.9,30.14,NW,308,4.0,9.0,53,0.00,,,0.04,meteohub,2013-02-04 20:35:00,
2013-02-04 14:40:00,16.2,2.1,30.14,NW,305,4.0,9.0,53,0.00,,,0.04,meteohub,2013-02-04 20:40:00,
2013-02-04 14:45:00,16.0,1.9,30.14,WNW,296,5.0,6.0,53,0.00,,,0.04,meteohub,2013-02-04 20:45:00,
2013-02-04 14:50:00,15.6,1.9,30.14,WNW,300,5.0,7.0,54,0.00,,,0.04,meteohub,2013-02-04 20:50:00,
2013-02-04 14:55:00,15.4,2.1,30.13,WNW,299,1.0,7.0,55,0.00,,,0.04,meteohub,2013-02-04 20:55:00,
2013-02-04 15:00:00,15.4,2.1,30.13,WNW,289,0.0,8.0,55,0.00,,,0.04,meteohub,2013-02-04 21:00:00,
2013-02-04 15:05:00,15.4,2.5,30.12,West,276,7.0,8.0,56,0.00,,,0.04,meteohub,2013-02-04 21:05:00,
2013-02-04 15:10:00,15.6,2.7,30.12,WNW,282,0.0,9.0,56,0.00,,,0.04,meteohub,2013-02-04 21:10:00,
2013-02-04 15:15:00,16.3,3.4,30.13,NNW,331,3.0,9.0,56,0.00,,,0.04,meteohub,2013-02-04 21:15:00,
2013-02-04 15:20:00,17.1,4.1,30.13,NNW,327,1.0,9.0,56,0.00,,,0.04,meteohub,2013-02-04 21:20:00,
2013-02-04 15:25:00,17.2,3.4,30.12,NNW,327,0.0,7.0,54,0.00,,,0.04,meteohub,2013-02-04 21:25:00,
2013-02-04 15:30:00,16.9,3.6,30.12,NNW,327,0.0,5.0,55,0.00,,,0.04,meteohub,2013-02-04 21:30:00,
2013-02-04 15:35:00,16.7,3.4,30.12,NNW,327,0.0,4.0,55,0.00,,,0.04,meteohub,2013-02-04 21:35:00,
2013-02-04 15:40:00,16.5,3.6,30.12,NNW,327,0.0,4.0,56,0.00,,,0.04,meteohub,2013-02-04 21:40:00,
2013-02-04 15:45:00,16.3,3.4,30.12,NNW,327,0.0,3.0,56,0.00,,,0.04,meteohub,2013-02-04 21:45:00,
2013-02-04 15:50:00,16.2,3.6,30.12,NNW,327,3.0,3.0,57,0.00,,,0.04,meteohub,2013-02-04 21:50:00,
2013-02-04 15:55:00,16.2,3.6,30.12,NNW,327,0.0,3.0,57,0.00,,,0.04,meteohub,2013-02-04 21:55:00,
2013-02-04 16:00:00,15.8,3.2,30.12,NNW,327,0.0,3.0,57,0.00,,,0.04,meteohub,2013-02-04 22:00:00,
2013-02-04 16:05:00,15.4,2.8,30.12,NNW,327,0.0,3.0,57,0.00,,,0.04,meteohub,2013-02-04 22:05:00,
2013-02-04 16:10:00,15.3,3.2,30.12,NNW,327,0.0,0.0,58,0.00,,,0.04,meteohub,2013-02-04 22:10:00,
2013-02-04 16:15:00,15.4,3.7,30.12,NNW,327,0.0,2.0,59,0.00,,,0.04,meteohub,2013-02-04 22:15:00,
2013-02-04 16:20:00,15.3,3.2,30.12,NNW,327,0.0,2.0,58,0.00,,,0.04,meteohub,2013-02-04 22:20:00,
2013-02-04 16:25:00,14.7,2.3,30.12,NNW,327,1.0,3.0,57,0.00,,,0.04,meteohub,2013-02-04 22:25:00,
2013-02-04 16:30:00,14.4,2.3,30.11,NNW,327,0.0,3.0,58,0.00,,,0.04,meteohub,2013-02-04 22:30:00,
2013-02-04 16:35:00,14.0,1.9,30.11,NNW,327,0.0,3.0,58,0.00,,,0.04,meteohub,2013-02-04 22:35:00,
2013-02-04 16:40:00,13.6,1.6,30.11,NNW,327,0.0,3.0,58,0.00,,,0.04,meteohub,2013-02-04 22:40:00,
2013-02-04 16:46:00,13.8,1.8,30.12,NNW,327,0.0,2.0,58,0.00,,,0.04,meteohub,2013-02-04 22:46:00,
2013-02-04 16:51:00,13.6,1.6,30.12,NNW,327,0.0,2.0,58,0.00,,,0.04,meteohub,2013-02-04 22:51:00,
2013-02-04 16:56:00,13.5,1.4,30.11,NNW,327,0.0,3.0,58,0.00,,,0.04,meteohub,2013-02-04 22:56:00,
2013-02-04 17:01:00,13.3,1.6,30.11,NNW,327,0.0,3.0,59,0.00,,,0.04,meteohub,2013-02-04 23:01:00,
2013-02-04 17:06:00,13.1,1.8,30.11,NNW,327,0.0,3.0,60,0.00,,,0.04,meteohub,2013-02-04 23:06:00,
2013-02-04 17:11:00,12.7,1.4,30.11,NNW,327,0.0,0.0,60,0.00,,,0.04,meteohub,2013-02-04 23:11:00,
2013-02-04 17:16:00,12.6,1.4,30.12,NNW,327,0.0,3.0,60,0.00,,,0.04,meteohub,2013-02-04 23:16:00,
2013-02-04 17:21:00,12.2,1.0,30.12,NNW,327,2.0,3.0,60,0.00,,,0.04,meteohub,2013-02-04 23:21:00,
2013-02-04 17:26:00,11.8,0.7,30.12,NNW,327,0.0,3.0,60,0.00,,,0.04,meteohub,2013-02-04 23:26:00,
2013-02-04 17:31:00,11.7,0.9,30.12,NNW,327,0.0,3.0,61,0.00,,,0.04,meteohub,2013-02-04 23:31:00,
2013-02-04 17:36:00,11.1,0.3,30.11,NNW,327,0.0,3.0,61,0.00,,,0.04,meteohub,2013-02-04 23:36:00,
2013-02-04 17:41:00,10.6,-0.2,30.11,NNW,327,0.0,0.0,61,0.00,,,0.04,meteohub,2013-02-04 23:41:00,
2013-02-04 17:46:00,10.0,-0.4,30.10,NNW,327,0.0,0.0,62,0.00,,,0.04,meteohub,2013-02-04 23:46:00,
2013-02-04 17:51:00,9.9,-0.2,30.10,NNW,327,0.0,0.0,63,0.00,,,0.04,meteohub,2013-02-04 23:51:00,
2013-02-04 17:56:00,9.7,-0.4,30.10,NNW,327,0.0,0.0,63,0.00,,,0.04,meteohub,2013-02-04 23:56:00,
2013-02-04 18:01:00,9.1,-0.6,30.09,NNW,327,0.0,0.0,64,0.00,,,0.04,meteohub,2013-02-05 00:01:00,
2013-02-04 18:06:00,8.8,-0.9,30.09,NNW,327,0.0,0.0,64,0.00,,,0.04,meteohub,2013-02-05 00:06:00,
2013-02-04 18:11:00,8.6,-0.8,30.09,NNW,327,0.0,0.0,65,0.00,,,0.04,meteohub,2013-02-05 00:11:00,
2013-02-04 18:16:00,8.4,-0.6,30.09,NNW,327,0.0,0.0,66,0.00,,,0.04,meteohub,2013-02-05 00:16:00,
2013-02-04 18:21:00,8.1,-0.9,30.08,NNW,327,0.0,0.0,66,0.00,,,0.04,meteohub,2013-02-05 00:21:00,
2013-02-04 18:26:00,7.5,-1.5,30.07,NNW,327,0.0,0.0,66,0.00,,,0.04,meteohub,2013-02-05 00:26:00,
2013-02-04 18:31:00,7.3,-1.3,30.07,NNW,327,0.0,0.0,67,0.00,,,0.04,meteohub,2013-02-05 00:31:00,
2013-02-04 18:36:00,7.0,-1.3,30.07,NNW,327,0.0,0.0,68,0.00,,,0.04,meteohub,2013-02-05 00:36:00,
2013-02-04 18:41:00,6.6,-1.7,30.07,NNW,327,0.0,0.0,68,0.00,,,0.04,meteohub,2013-02-05 00:41:00,
2013-02-04 18:46:00,7.0,-0.8,30.06,NNW,327,0.0,0.0,70,0.00,,,0.04,meteohub,2013-02-05 00:46:00,
2013-02-04 18:51:00,7.7,0.0,30.06,NNW,327,0.0,0.0,70,0.00,,,0.04,meteohub,2013-02-05 00:51:00,
2013-02-04 18:56:00,8.1,0.3,30.05,NNW,327,0.0,2.0,70,0.00,,,0.04,meteohub,2013-02-05 00:56:00,
2013-02-04 19:01:00,7.9,0.1,30.06,NNW,327,0.0,2.0,70,0.00,,,0.04,meteohub,2013-02-05 01:01:00,
2013-02-04 19:06:00,7.9,0.1,30.06,NNW,327,0.0,1.0,70,0.00,,,0.04,meteohub,2013-02-05 01:06:00,
2013-02-04 19:11:00,7.9,0.1,30.05,NNW,327,0.0,0.0,70,0.00,,,0.04,meteohub,2013-02-05 01:11:00,
2013-02-04 19:16:00,8.2,0.9,30.05,NNW,327,0.0,0.0,71,0.00,,,0.04,meteohub,2013-02-05 01:16:00,
2013-02-04 19:21:00,8.2,0.5,30.05,NNW,327,0.0,0.0,70,0.00,,,0.04,meteohub,2013-02-05 01:21:00,
2013-02-04 19:26:00,8.1,0.3,30.05,NNW,327,0.0,0.0,70,0.00,,,0.04,meteohub,2013-02-05 01:26:00,
2013-02-04 19:31:00,8.2,0.9,30.04,NNW,327,0.0,0.0,71,0.00,,,0.04,meteohub,2013-02-05 01:31:00,
2013-02-04 19:36:00,8.4,1.0,30.04,NNW,327,0.0,0.0,71,0.00,,,0.04,meteohub,2013-02-05 01:36:00,
2013-02-04 19:41:00,8.8,1.2,30.04,NNW,327,0.0,0.0,71,0.00,,,0.04,meteohub,2013-02-05 01:41:00,
2013-02-04 19:46:00,8.8,1.2,30.04,NNW,327,0.0,0.0,71,0.00,,,0.04,meteohub,2013-02-05 01:46:00,
2013-02-04 19:51:00,8.8,1.2,30.04,NNW,327,0.0,0.0,71,0.00,,,0.04,meteohub,2013-02-05 01:51:00,
2013-02-04 19:56:00,8.8,1.2,30.04,NNW,327,0.0,0.0,71,0.00,,,0.04,meteohub,2013-02-05 01:56:00,
2013-02-04 20:01:00,9.0,1.8,30.03,NNW,327,0.0,0.0,72,0.00,,,0.04,meteohub,2013-02-05 02:01:00,
2013-02-04 20:06:00,9.1,1.9,30.03,NNW,327,0.0,0.0,72,0.00,,,0.04,meteohub,2013-02-05 02:06:00,
2013-02-04 20:11:00,9.3,2.1,30.03,NNW,327,0.0,0.0,72,0.00,,,0.04,meteohub,2013-02-05 02:11:00,
2013-02-04 20:16:00,9.3,1.8,30.03,NNW,327,0.0,0.0,71,0.00,,,0.04,meteohub,2013-02-05 02:16:00,
2013-02-04 20:21:00,9.3,1.8,30.03,NNW,327,0.0,0.0,71,0.00,,,0.04,meteohub,2013-02-05 02:21:00,
2013-02-04 20:26:00,9.1,1.9,30.04,NNW,327,0.0,0.0,72,0.00,,,0.04,meteohub,2013-02-05 02:26:00,
2013-02-04 20:31:00,9.1,1.9,30.04,NNW,327,0.0,0.0,72,0.00,,,0.04,meteohub,2013-02-05 02:31:00,
2013-02-04 20:37:00,9.3,2.1,30.03,NNW,327,0.0,0.0,72,0.00,,,0.04,meteohub,2013-02-05 02:37:00,
2013-02-04 20:42:00,9.7,2.8,30.03,NNW,327,0.0,0.0,73,0.00,,,0.04,meteohub,2013-02-05 02:42:00,
2013-02-04 20:47:00,9.9,3.0,30.03,NNW,327,0.0,1.0,73,0.00,,,0.04,meteohub,2013-02-05 02:47:00,
2013-02-04 20:52:00,10.0,3.2,30.04,NNW,327,0.0,1.0,73,0.00,,,0.04,meteohub,2013-02-05 02:52:00,
2013-02-04 20:57:00,10.0,3.2,30.04,NNW,327,0.0,0.0,73,0.00,,,0.04,meteohub,2013-02-05 02:57:00,
2013-02-04 21:02:00,10.2,3.4,30.04,NNW,327,0.0,0.0,73,0.00,,,0.04,meteohub,2013-02-05 03:02:00,
2013-02-04 21:07:00,10.2,3.4,30.03,NNW,327,0.0,0.0,73,0.00,,,0.04,meteohub,2013-02-05 03:07:00,
2013-02-04 21:12:00,10.4,3.4,30.03,NNW,327,0.0,0.0,73,0.00,,,0.04,meteohub,2013-02-05 03:12:00,
2013-02-04 21:17:00,10.6,3.6,30.03,NNW,327,0.0,0.0,73,0.00,,,0.04,meteohub,2013-02-05 03:17:00,
2013-02-04 21:22:00,10.6,3.6,30.03,NNW,327,0.0,0.0,73,0.00,,,0.04,meteohub,2013-02-05 03:22:00,
2013-02-04 21:27:00,10.6,3.6,30.03,NNW,327,0.0,0.0,73,0.00,,,0.04,meteohub,2013-02-05 03:27:00,
2013-02-04 21:32:00,10.8,3.7,30.02,NNW,327,0.0,0.0,73,0.00,,,0.04,meteohub,2013-02-05 03:32:00,
2013-02-04 21:37:00,10.8,4.1,30.02,NNW,327,0.0,0.0,74,0.00,,,0.04,meteohub,2013-02-05 03:37:00,
2013-02-04 21:42:00,10.9,4.3,30.02,NNW,327,0.0,0.0,74,0.00,,,0.04,meteohub,2013-02-05 03:42:00,
2013-02-04 21:47:00,11.1,4.8,30.02,NNW,327,0.0,0.0,75,0.00,,,0.04,meteohub,2013-02-05 03:47:00,
2013-02-04 21:52:00,11.5,5.2,30.01,NNW,327,0.0,0.0,75,0.00,,,0.04,meteohub,2013-02-05 03:52:00,
2013-02-04 21:57:00,11.5,5.2,30.01,NNW,327,0.0,1.0,75,0.00,,,0.04,meteohub,2013-02-05 03:57:00,
2013-02-04 22:02:00,11.7,5.5,30.01,NNW,327,3.0,3.0,76,0.00,,,0.04,meteohub,2013-02-05 04:02:00,
2013-02-04 22:07:00,11.7,5.9,30.00,NNW,327,2.0,3.0,77,0.00,,,0.04,meteohub,2013-02-05 04:07:00,
2013-02-04 22:12:00,11.7,6.1,30.00,WNW,289,4.0,4.0,78,0.00,,,0.04,meteohub,2013-02-05 04:12:00,
2013-02-04 22:17:00,11.8,6.6,30.00,WNW,285,3.0,6.0,79,0.00,,,0.04,meteohub,2013-02-05 04:17:00,
2013-02-04 22:22:00,11.8,6.8,29.99,WNW,285,3.0,6.0,80,0.00,,,0.04,meteohub,2013-02-05 04:22:00,
2013-02-04 22:27:00,12.0,7.3,29.99,WNW,285,0.0,6.0,81,0.00,,,0.04,meteohub,2013-02-05 04:27:00,
2013-02-04 22:32:00,12.0,7.3,29.99,WNW,284,2.0,5.0,81,0.00,,,0.04,meteohub,2013-02-05 04:32:00,
2013-02-04 22:37:00,12.2,7.7,29.98,WNW,284,4.0,5.0,82,0.00,,,0.04,meteohub,2013-02-05 04:37:00,
2013-02-04 22:42:00,12.4,8.2,29.98,West,281,4.0,5.0,83,0.00,,,0.04,meteohub,2013-02-05 04:42:00,
2013-02-04 22:47:00,12.6,8.4,29.97,West,281,3.0,5.0,83,0.00,,,0.04,meteohub,2013-02-05 04:47:00,
2013-02-04 22:52:00,12.7,8.8,29.96,West,270,2.0,5.0,84,0.00,,,0.04,meteohub,2013-02-05 04:52:00,
2013-02-04 22:57:00,12.9,9.0,29.96,WSW,256,4.0,6.0,84,0.00,,,0.04,meteohub,2013-02-05 04:57:00,
2013-02-04 23:00:00,12.9,9.0,29.95,WSW,247,3.0,6.0,84,0.00,,,0.04,meteohub,2013-02-05 05:00:00,
2013-02-04 23:05:00,13.3,9.7,29.94,WSW,246,6.0,9.0,85,0.00,,,0.04,meteohub,2013-02-05 05:05:00,
2013-02-04 23:11:00,13.6,10.0,29.94,WSW,240,6.0,9.0,85,0.00,,,0.04,meteohub,2013-02-05 05:11:00,
2013-02-04 23:16:00,13.8,10.4,29.93,WSW,246,6.0,9.0,86,0.00,,,0.04,meteohub,2013-02-05 05:16:00,
2013-02-04 23:21:00,14.4,10.9,29.93,WSW,238,5.0,10.0,86,0.00,,,0.04,meteohub,2013-02-05 05:21:00,
2013-02-04 23:26:00,14.7,11.3,29.92,SW,234,10.0,10.0,86,0.00,,,0.04,meteohub,2013-02-05 05:26:00,
2013-02-04 23:31:00,15.3,12.0,29.92,WSW,244,4.0,10.0,87,0.00,,,0.04,meteohub,2013-02-05 05:31:00,
2013-02-04 23:36:00,15.4,12.2,29.92,West,259,5.0,10.0,87,0.00,,,0.04,meteohub,2013-02-05 05:36:00,
2013-02-04 23:41:00,16.0,12.7,29.91,West,275,9.0,11.0,87,0.00,,,0.04,meteohub,2013-02-05 05:41:00,
2013-02-04 23:46:00,16.3,13.1,29.91,WSW,252,4.0,11.0,87,0.00,,,0.04,meteohub,2013-02-05 05:46:00,
2013-02-04 23:51:00,16.7,13.5,29.90,West,260,10.0,12.0,87,0.00,,,0.04,meteohub,2013-02-05 05:51:00,
2013-02-04 23:56:00,17.1,13.8,29.91,West,268,5.0,12.0,87,0.00,,,0.04,meteohub,2013-02-05 05:56:00,